Regional Weather Roundup
Issued by NWS

Home | Current Version | Previous Version | Text Only | Print | Product List | Glossary Off
Versions: 1 2 3 4 5 6 7 8 9 10 11 12 13 14 15 16 17 18 19 20 21 22 23 24 25 26 27 28 29 30 31 32 33 34 35 36 37 38 39 40 41 42 43 44 45 46 47 48 49 50

000
ASUS43 KDTX 250201
RWRMI
MICHIGAN HOURLY REGIONAL WEATHER ROUNDUP
NATIONAL WEATHER SERVICE DETROIT/PONTIAC MI
1000 PM EDT MON JUL 24 2017

NOTE: "FAIR" INDICATES FEW OR NO CLOUDS BELOW 12,000 FEET WITH NO
SIGNIFICANT WEATHER AND/OR OBSTRUCTION TO VISIBILITY.

MIZ047>049-052>055-059>063-066>070-074>076-081>083-250300-
SOUTHEAST LOWER MICHIGAN

CITY           SKY/WX    TMP DP  RH WIND       PRES   REMARKS
ADRIAN         CLEAR     62  56  80 CALM      30.09R
ALMA           CLEAR     64  56  78 E5        30.10R
ANN ARBOR      CLEAR     60  52  74 N5        30.08R
BAD AXE        CLEAR     59  56  90 CALM      30.10R
CARO           CLEAR     58  53  82 CALM      30.09R
DETROIT CITY   CLEAR     66  54  65 N6        30.08R
DETROIT        PTCLDY    67  50  54 N7        30.08R
FLINT          CLEAR     64  52  64 NE5       30.10R
GROSSE ILE     CLEAR     67  52  58 N6        30.06R
HILLSDALE      MOCLDY    59  54  82 CALM      30.09R
HOWELL         CLEAR     64  55  70 NE3       30.10R

CITY           SKY/WX    TMP DP  RH WIND       PRES   REMARKS
JACKSON        CLEAR     65  53  65 CALM      30.09R
LAMBERTVILLE   CLEAR     62  55  79 CALM      30.08R
LANSING        CLEAR     66  56  70 CALM      30.09R
LAPEER         FAIR      58  57  96 CALM      30.10R
MASON          CLEAR     62  57  83 CALM      30.09R
MONROE         CLEAR     61  56  82 CALM      30.07R
MT. CLEMENS    PTCLDY    63  55  73 NW7       30.06R
PONTIAC        CLEAR     64  54  69 N6        30.08R
PORT HOPE        N/A     64  57  78 CALM      30.08R
PORT HURON     CLEAR     63  57  82 N6        30.09R
TRI CITIES     CLEAR     65  57  75 CALM      30.10R
MIDLAND        FAIR      61  56  84 CALM      30.09R
TROY           CLEAR     66  53  62 N5        30.10R
SAGINAW HB     CLEAR     63  52  67 NE3       30.10R
$$
MIZ043>046-050>051-056>058-064>065-071>073-077>080-250300-
SOUTHWEST LOWER MICHIGAN

CITY           SKY/WX    TMP DP  RH WIND       PRES   REMARKS
BATTLE CREEK   CLEAR     66  57  72 CALM      30.10R
BENTON HARBOR  CLEAR     67  60  78 CALM      30.08S
BIG RAPIDS     MOCLDY    62  57  82 W3        30.09R
COLDWATER      CLEAR     63  60  88 CALM      30.09R
FREMONT        FAIR      65  56  73 CALM      30.08R
HOLLAND        CLEAR     66  58  75 CALM      30.09R
GRAND RAPIDS   PTCLDY    69  58  67 CALM      30.08R
IONIA          FAIR      65  57  75 CALM      30.08R
KALAMAZOO      CLEAR     67  54  63 CALM      30.09R
LUDINGTON      MOCLDY    60  53  76 N5        30.09S
MARSHALL       CLEAR     63  59  88 CALM      30.09R
MOUNT PLEASANT CLEAR     67  55  65 SE5       30.09R
MUSKEGON       CLEAR     68  56  65 NW7       30.09R
SOUTH HAVEN    CLEAR     66  62  87 CALM      30.09R
$$
MIZ016>042-250300-
NORTHERN LOWER MICHIGAN

CITY           SKY/WX    TMP DP  RH WIND       PRES   REMARKS
ALPENA         CLEAR     61  57  87 CALM      30.10R
BELLAIRE       CLEAR     57  50  79 CALM      30.10R
CADILLAC       CLEAR     63  53  68 N3        30.11R
CHARLEVOIX     CLEAR     66  56  70 CALM      30.13R
FRANKFORT      CLEAR     59  52  76 CALM      30.10R
GAYLORD        CLEAR     63  48  58 W3        30.12R
GRAYLING       CLEAR     55  49  81 NW3       30.12R
HARBOR SPRINGS CLEAR     64  46  53 N7        30.10R
HOUGHTON LAKE  CLEAR     60  52  74 CALM      30.11R
MANISTEE       CLEAR     60  53  77 CALM      30.09R
OSCODA         CLEAR     64  56  76 CALM      30.09R
PELLSTON       CLEAR     58  53  84 CALM      30.11R
ROGERS CITY    CLEAR     63  53  69 W3        30.10R
TRAVERSE CITY  PTCLDY    68  50  52 CALM      30.09R
$$
MIZ007>008-015-250300-
EASTERN UPPER MICHIGAN

CITY           SKY/WX    TMP DP  RH WIND       PRES   REMARKS
KINROSS        CLEAR     59  51  75 W5        30.11R
MACKINAC ISLAN CLEAR     62  53  72 N7        30.10R
NEWBERRY       CLOUDY    56  55  97 CALM      30.11R
S. S. MARIE    CLEAR     62  49  62 NW9       30.09R
MUNISING         N/A     59  56  89 S5        30.10R
$$
MIZ004>006-011>014-085-250300-
CENTRAL UPPER MICHIGAN

CITY           SKY/WX    TMP DP  RH WIND       PRES   REMARKS
MANISTIQUE     CLEAR     60  57  89 CALM      30.10R
ESCANABA       CLEAR     64  59  83 CALM      30.10R
MENOMINEE      CLEAR     66  55  67 CALM      30.11R
SAWYER-GWINN   CLEAR     66  54  63 SE5       30.11R
$$
MIZ001>003-009>011-084-250300-
WESTERN UPPER MICHIGAN

CITY           SKY/WX    TMP DP  RH WIND       PRES   REMARKS
IRON MOUNTAIN  CLEAR     66  55  67 S5        30.09R
HOUGHTON       CLEAR     62  53  72 E3        30.08R
COPPER HARBOR    N/A     63  53  70 VRB6      30.07S
IRONWOOD       CLEAR     60  57  89 CALM      30.07F
$$

ABBREVIATIONS USED IN REMARKS
   TC - TEMPERATURE IN CELSIUS
  WCI - WIND CHILL INDEX
   HX - HEAT INDEX
  VSB - VISIBILITY





USA.gov is the U.S. government's official web portal to all federal, state and local government web resources and services.